Date String (YYYY-MM-DD hh:mm:ss) UTC,Instrument flags,absolute air pressure of the measurement (hPa),sample flow rate (lpm),inlet stack bypass flow (lpm),air temperature of the measurement (°C),ambient temperature measured by the external sensor (°C),aerosol sample conditioner tube jacket temperature (°C),OPC LED temperature (°C),internal box temperature (°C),relative humidity of the measurement (%),span deviation,mass concentration of particles derived from Lorenz-Mie calculation of OPC scattering (μg/m³),mass concentration of particles derived from Lorenz-Mie calculation of OPC scattering (μg/m³),mass concentration of particles derived from Lorenz-Mie calculation of OPC scattering (μg/m³)
DateTimeUTC,F1_M11,P_M11,Q1_M11,Q2_M11,T1_M11,T2_M11,T3_M11,T4_M11,T5_M11,U1_M11,ZSPAN_M11,X0_M11,X2_M11,X1_M11
2023-07-03 05:00:00,SystemResetWarning,0833.2,5.00,000.00,029.3,026.4,000.0,037.6,030.9,25.4,0000.8,0010.14,0005.26,0004.71
2023-07-03 05:01:00,SystemResetWarning,0833.2,5.00,000.00,029.3,025.3,000.0,037.5,030.7,25.0,0000.3,0010.56,0005.27,0004.71
2023-07-03 05:02:00,SystemResetWarning,0833.2,5.00,000.00,029.2,025.3,000.0,037.5,030.5,24.8,0002.2,0010.62,0005.28,0004.72
2023-07-03 05:03:00,SystemResetWarning,0833.2,5.01,000.00,029.1,025.6,000.0,037.5,030.4,24.8,0002.1,0011.04,0005.29,0004.72
2023-07-03 05:04:00,SystemResetWarning,0833.2,5.00,000.00,029.0,026.1,000.0,037.5,030.4,25.7,0000.6,0010.76,0005.27,0004.72
2023-07-03 05:05:00,SystemResetWarning,0833.2,4.99,000.00,029.0,026.4,000.0,037.6,030.5,25.5,0000.0,0010.90,0005.22,0004.72
2023-07-03 05:06:00,SystemResetWarning,0833.2,4.99,000.00,029.1,026.8,000.0,037.6,030.6,25.0,0000.0,0011.13,0005.22,0004.72
2023-07-03 05:07:00,SystemResetWarning,0833.2,5.01,000.00,029.1,027.1,000.0,037.6,030.6,25.3,0000.0,0011.20,0005.22,0004.72
2023-07-03 05:08:00,SystemResetWarning,0833.2,5.01,000.00,029.1,027.3,000.0,037.6,030.7,25.6,0000.0,0011.03,0005.18,0004.70
2023-07-03 05:09:00,SystemResetWarning,0833.2,5.00,000.00,029.1,027.5,000.0,037.6,030.8,25.0,0000.0,0010.82,0005.17,0004.70
2023-07-03 05:10:00,SystemResetWarning,0833.2,4.99,000.00,029.2,027.7,000.0,037.6,030.8,25.0,0000.0,0010.80,0005.17,0004.70
2023-07-03 05:11:00,SystemResetWarning,0833.2,4.99,000.00,029.2,027.8,000.0,037.6,030.8,24.8,0000.0,0010.65,0005.13,0004.70
2023-07-03 05:12:00,SystemResetWarning,0833.2,5.00,000.00,029.2,028.0,000.0,037.7,030.9,24.8,0000.0,0010.37,0005.13,0004.69
2023-07-03 05:13:00,SystemResetWarning,0833.2,5.01,000.00,029.3,028.1,000.0,037.7,030.9,24.4,0000.0,0010.79,0005.17,0004.68
2023-07-03 05:14:00,SystemResetWarning,0833.2,5.01,000.00,029.3,028.2,000.0,037.7,031.0,24.2,0000.0,0010.39,0005.17,0004.68
2023-07-03 05:15:00,SystemResetWarning,0833.2,5.00,000.00,029.3,028.0,000.0,037.7,031.0,24.7,0000.0,0010.27,0005.16,0004.67
2023-07-03 05:16:00,SystemResetWarning,0833.2,4.99,000.00,029.3,026.3,000.0,037.6,030.8,24.7,0000.0,0010.27,0005.17,0004.67
2023-07-03 05:17:00,SystemResetWarning,0833.2,5.00,000.00,029.2,025.2,000.0,037.5,030.6,24.8,0000.0,0009.67,0005.17,0004.67
2023-07-03 05:18:00,SystemResetWarning,0833.2,5.01,000.00,029.1,025.2,000.0,037.5,030.4,24.6,0000.0,0009.93,0005.19,0004.66
2023-07-03 05:19:00,SystemResetWarning,0833.2,5.01,000.00,029.0,025.5,000.0,037.5,030.3,24.9,0000.0,0010.21,0005.21,0004.68
2023-07-03 05:20:00,SystemResetWarning,0833.2,4.99,000.00,029.0,026.0,000.0,037.5,030.4,24.7,0000.0,0011.28,0005.23,0004.69
2023-07-03 05:21:00,SystemResetWarning,0833.2,5.00,000.00,029.0,026.4,000.0,037.6,030.5,24.4,0000.0,0011.42,0005.17,0004.69
2023-07-03 05:22:00,SystemResetWarning,0833.3,5.00,000.00,029.0,026.7,000.0,037.6,030.5,24.4,0000.0,0012.06,0005.19,0004.69
2023-07-03 05:23:00,SystemResetWarning,0833.2,4.99,000.00,029.0,027.0,000.0,037.6,030.6,24.7,0000.0,0011.88,0005.20,0004.70
2023-07-03 05:24:00,SystemResetWarning,0833.2,5.00,000.00,029.1,027.3,000.0,037.6,030.6,25.6,0000.0,0011.51,0005.17,0004.71
2023-07-03 05:25:00,SystemResetWarning,0833.2,5.01,000.00,029.1,027.5,000.0,037.6,030.7,26.0,0000.0,0011.39,0005.15,0004.71
2023-07-03 05:26:00,SystemResetWarning,0833.2,5.00,000.00,029.1,027.7,000.0,037.6,030.8,26.3,0000.0,0011.37,0005.15,0004.71
2023-07-03 05:27:00,SystemResetWarning,0833.2,4.99,000.00,029.2,027.8,000.0,037.6,030.8,25.2,0000.0,0011.07,0005.17,0004.72
2023-07-03 05:28:00,SystemResetWarning,0833.2,5.00,000.00,029.2,027.9,000.0,037.6,030.8,24.6,0000.0,0010.90,0005.17,0004.72
2023-07-03 05:29:00,SystemResetWarning,0833.2,5.00,000.00,029.2,028.0,000.0,037.7,030.9,24.6,0000.0,0011.12,0005.16,0004.72
2023-07-03 05:30:00,SystemResetWarning,0833.2,5.00,000.00,029.3,028.1,000.0,037.7,030.9,24.3,0000.0,0010.99,0005.15,0004.72
2023-07-03 05:31:00,SystemResetWarning,0833.2,5.01,000.00,029.3,028.2,000.0,037.7,031.0,25.0,0000.0,0010.18,0005.12,0004.71
2023-07-03 05:32:00,SystemResetWarning,0833.2,4.99,000.00,029.3,028.3,000.0,037.7,031.0,25.7,0000.0,0010.71,0005.14,0004.70
2023-07-03 05:33:00,SystemResetWarning,0833.2,4.99,000.00,029.4,027.5,000.0,037.7,030.9,24.8,0000.0,0010.80,0005.17,0004.69
2023-07-03 05:34:00,SystemResetWarning,0833.2,5.00,000.00,029.3,025.7,000.0,037.6,030.7,25.8,0000.0,0011.95,0005.19,0004.69
2023-07-03 05:35:00,SystemResetWarning,0833.2,5.00,000.00,029.2,025.1,000.0,037.5,030.6,26.0,0000.0,0012.01,0005.19,0004.68
2023-07-03 05:36:00,SystemResetWarning,0833.2,5.01,000.00,029.1,025.3,000.0,037.5,030.4,25.8,0000.0,0012.08,0005.21,0004.69
2023-07-03 05:37:00,SystemResetWarning,0833.2,5.00,000.00,029.1,025.7,000.0,037.5,030.3,26.1,0000.0,0012.14,0005.22,0004.70
2023-07-03 05:38:00,SystemResetWarning,0833.2,5.00,000.00,029.0,026.1,000.0,037.6,030.4,26.4,-000.5,0012.56,0005.22,0004.70
2023-07-03 05:39:00,SystemResetWarning,0833.2,5.01,000.00,029.0,026.5,000.0,037.6,030.5,25.6,0000.0,0012.58,0005.24,0004.71
2023-07-03 05:40:00,SystemResetWarning,0833.2,4.99,000.00,029.0,026.8,000.0,037.6,030.6,24.9,0000.0,0012.30,0005.27,0004.72
2023-07-03 05:41:00,SystemResetWarning,0833.2,4.99,000.00,029.1,027.1,000.0,037.6,030.6,24.6,0000.0,0012.47,0005.30,0004.74
2023-07-03 05:42:00,SystemResetWarning,0833.2,5.01,000.00,029.1,027.3,000.0,037.6,030.7,24.9,0000.0,0012.59,0005.36,0004.74
2023-07-03 05:43:00,SystemResetWarning,0833.2,5.00,000.00,029.1,027.5,000.0,037.6,030.7,24.4,0000.0,0011.86,0005.38,0004.76
2023-07-03 05:44:00,SystemResetWarning,0833.3,4.99,000.00,029.1,027.7,000.0,037.6,030.8,24.3,0000.0,0011.51,0005.35,0004.77
2023-07-03 05:45:00,SystemResetWarning,0833.2,4.99,000.00,029.2,027.8,000.0,037.6,030.8,24.0,0000.0,0010.36,0005.31,0004.76
2023-07-03 05:46:00,SystemResetWarning,0833.2,5.01,000.00,029.2,027.9,000.0,037.7,030.8,24.2,0000.0,0010.21,0005.30,0004.76
2023-07-03 05:47:00,SystemResetWarning,0833.3,5.01,000.00,029.2,028.0,000.0,037.7,030.9,24.4,0000.0,0010.63,0005.30,0004.76
2023-07-03 05:48:00,SystemResetWarning,0833.2,5.00,000.00,029.3,028.1,000.0,037.7,030.9,24.4,0000.0,0010.86,0005.31,0004.74
2023-07-03 05:49:00,SystemResetWarning,0833.3,4.99,000.00,029.3,028.2,000.0,037.7,031.0,24.3,0000.0,0010.34,0005.29,0004.74
2023-07-03 05:50:00,SystemResetWarning,0833.3,5.00,000.00,029.3,028.3,000.0,037.8,031.0,24.2,0000.0,0010.44,0005.27,0004.73
2023-07-03 05:51:00,SystemResetWarning,0833.3,5.00,000.00,029.4,027.7,000.0,037.7,031.0,24.0,0000.0,0010.36,0005.26,0004.72
2023-07-03 05:52:00,SystemResetWarning,0833.2,5.00,000.00,029.3,025.8,000.0,037.6,030.7,24.0,0000.0,0010.38,0005.21,0004.71
2023-07-03 05:53:00,SystemResetWarning,0833.2,5.00,000.00,029.2,025.1,000.0,037.5,030.5,24.1,0000.0,0010.75,0005.14,0004.70
2023-07-03 05:54:00,SystemResetWarning,0833.2,5.01,000.00,029.1,025.2,000.0,037.5,030.3,25.2,0000.0,0010.73,0005.12,0004.69
2023-07-03 05:55:00,SystemResetWarning,0833.2,5.01,000.00,029.0,025.6,000.0,037.6,030.3,24.5,0000.0,0010.53,0005.11,0004.68
2023-07-03 05:56:00,SystemResetWarning,0833.2,4.99,000.00,029.0,026.0,000.0,037.6,030.4,25.4,0000.0,0010.92,0005.11,0004.67
2023-07-03 05:57:00,SystemResetWarning,0833.2,5.00,000.00,029.0,026.4,000.0,037.6,030.5,25.6,0000.0,0011.12,0005.14,0004.67
2023-07-03 05:58:00,SystemResetWarning,0833.3,5.00,000.00,029.0,026.8,000.0,037.6,030.5,25.1,0000.0,0011.17,0005.16,0004.67
2023-07-03 05:59:00,SystemResetWarning,0833.2,5.00,000.00,029.0,027.0,000.0,037.6,030.6,25.2,0000.0,0011.31,0005.19,0004.68
